WZZ37KJ EPGD-ESSA

Flight info

Callsign WZZ37KJ
Flight time N/A
Altitude 34000
Route VAPOS N133 PENOR DCT ARMOD/N0419F330 Z228 NILUG
Aircraft A21N/M-SDE1E2E3FGIJ1J4RWXY/LB1

Departure

Time 2026-05-06 12:49
Airport Gdańsk Lech Wałęsa Airport (EPGD)

Arrival

Time N/A
Airport Stockholm-Arlanda Airport (ESSA)
Time Latitude Longitude Altitude Speed Heading
2026-05-06 12:23 54.38098 18.46672 450 ft 0 kts 23°
2026-05-06 12:37 54.38091 18.46667 450 ft 2 kts 26°
2026-05-06 12:37 54.38078 18.46655 450 ft 2 kts 26°
2026-05-06 12:38 54.38065 18.46644 449 ft 2 kts 26°
2026-05-06 12:38 54.38051 18.46632 449 ft 2 kts 26°
2026-05-06 12:38 54.38038 18.46621 448 ft 2 kts 26°
2026-05-06 12:38 54.38029 18.46613 448 ft 0 kts 27°
2026-05-06 12:39 54.38025 18.46609 448 ft 0 kts 23°
2026-05-06 12:43 54.38046 18.46615 448 ft 7 kts 348°
2026-05-06 12:43 54.38083 18.46527 448 ft 9 kts 295°
2026-05-06 12:43 54.38113 18.46421 448 ft 10 kts 294°
2026-05-06 12:43 54.38144 18.46303 448 ft 11 kts 293°
2026-05-06 12:44 54.38174 18.46182 448 ft 10 kts 286°
2026-05-06 12:44 54.38135 18.46082 448 ft 11 kts 206°
2026-05-06 12:44 54.38098 18.45964 447 ft 13 kts 281°
2026-05-06 12:44 54.38123 18.45860 447 ft 6 kts 294°
2026-05-06 12:45 54.38141 18.45790 448 ft 6 kts 292°
2026-05-06 12:45 54.38151 18.45721 448 ft 2 kts 270°
2026-05-06 12:45 54.38122 18.45645 447 ft 5 kts 211°
2026-05-06 12:46 54.38117 18.45641 447 ft 0 kts 200°
2026-05-06 12:47 54.38108 18.45635 447 ft 3 kts 200°
2026-05-06 12:47 54.38076 18.45612 446 ft 4 kts 204°
2026-05-06 12:47 54.38044 18.45587 446 ft 3 kts 204°
2026-05-06 12:47 54.38038 18.45582 446 ft 3 kts 204°
2026-05-06 12:48 54.38016 18.45585 446 ft 1 kts 146°
2026-05-06 12:48 54.38015 18.45587 446 ft 0 kts 123°
2026-05-06 12:48 54.37996 18.45657 445 ft 27 kts 112°
2026-05-06 12:49 54.37809 18.46414 446 ft 107 kts 112°
2026-05-06 12:49 54.37424 18.47952 479 ft 167 kts 109°
2026-05-06 12:49 54.36974 18.49810 1161 ft 172 kts 106°
2026-05-06 12:49 54.36521 18.51661 1992 ft 168 kts 106°
2026-05-06 12:50 54.36088 18.53545 2475 ft 178 kts 109°
2026-05-06 12:50 54.35586 18.55599 2843 ft 194 kts 111°
2026-05-06 12:50 54.35033 18.57818 3161 ft 214 kts 113°
2026-05-06 12:50 54.34431 18.60245 3612 ft 228 kts 114°
2026-05-06 12:51 54.33821 18.62861 4044 ft 246 kts 107°
2026-05-06 12:51 54.33801 18.65792 4642 ft 260 kts 78°
2026-05-06 12:51 54.34672 18.68536 5339 ft 273 kts 49°
2026-05-06 12:51 54.36300 18.70347 5984 ft 284 kts 24°
2026-05-06 12:52 54.38141 18.71551 6583 ft 292 kts 16°
2026-05-06 12:52 54.40173 18.71714 7145 ft 296 kts 343°
2026-05-06 12:52 54.41846 18.70179 7786 ft 289 kts 311°
2026-05-06 12:52 54.43029 18.67518 8485 ft 284 kts 297°
2026-05-06 12:53 54.44054 18.64591 9152 ft 287 kts 296°
2026-05-06 12:53 54.45102 18.61719 9812 ft 290 kts 298°
2026-05-06 12:53 54.46243 18.58811 10462 ft 293 kts 300°
2026-05-06 12:53 54.47575 18.56148 11056 ft 303 kts 316°
2026-05-06 12:54 54.49306 18.54058 11641 ft 310 kts 322°
2026-05-06 12:54 54.51180 18.52037 11931 ft 325 kts 323°
2026-05-06 12:54 54.53127 18.49922 12251 ft 338 kts 322°
2026-05-06 12:54 54.55098 18.47726 12747 ft 343 kts 322°
2026-05-06 12:55 54.57103 18.45450 13330 ft 346 kts 322°
2026-05-06 12:55 54.59093 18.43160 13899 ft 348 kts 321°
2026-05-06 12:55 54.61089 18.40841 14443 ft 351 kts 321°
2026-05-06 12:55 54.63131 18.38450 14993 ft 353 kts 321°
2026-05-06 12:56 54.65149 18.36080 15542 ft 356 kts 321°
2026-05-06 12:56 54.67188 18.33679 16054 ft 359 kts 320°
2026-05-06 12:56 54.69239 18.31259 16567 ft 361 kts 320°
2026-05-06 12:56 54.71311 18.28810 17071 ft 363 kts 320°
2026-05-06 12:57 54.73416 18.26316 17561 ft 366 kts 320°
2026-05-06 12:57 54.75500 18.23847 18029 ft 368 kts 320°
2026-05-06 12:57 54.77620 18.21330 18516 ft 370 kts 320°
2026-05-06 12:57 54.79732 18.18819 18962 ft 373 kts 320°
2026-05-06 12:58 54.81889 18.16250 19396 ft 376 kts 320°
2026-05-06 12:58 54.84030 18.13701 19818 ft 379 kts 320°
2026-05-06 12:58 54.86216 18.11092 20234 ft 382 kts 321°
2026-05-06 12:58 54.88393 18.08492 20664 ft 384 kts 321°
2026-05-06 12:59 54.90579 18.05876 21085 ft 386 kts 321°
2026-05-06 12:59 54.92804 18.03212 21486 ft 388 kts 321°
2026-05-06 12:59 54.95027 18.00544 21866 ft 391 kts 321°
2026-05-06 12:59 54.97270 17.97851 22254 ft 394 kts 321°
2026-05-06 13:00 54.99509 17.95155 22623 ft 396 kts 321°
2026-05-06 13:00 55.01787 17.92413 22984 ft 399 kts 321°
2026-05-06 13:00 55.04079 17.89648 23350 ft 401 kts 321°
2026-05-06 13:00 55.06354 17.86901 23694 ft 404 kts 322°
2026-05-06 13:01 55.08668 17.84100 24045 ft 406 kts 322°
2026-05-06 13:01 55.10993 17.81284 24399 ft 408 kts 322°
2026-05-06 13:01 55.13319 17.78463 24720 ft 410 kts 322°
2026-05-06 13:01 55.15655 17.75626 25038 ft 412 kts 322°
2026-05-06 13:02 55.18014 17.72755 25371 ft 414 kts 322°
2026-05-06 13:02 55.20382 17.69869 25712 ft 415 kts 322°
2026-05-06 13:02 55.22731 17.67003 26036 ft 417 kts 322°
2026-05-06 13:02 55.25106 17.64103 26364 ft 418 kts 322°
2026-05-06 13:03 55.27501 17.61170 26662 ft 420 kts 322°
2026-05-06 13:03 55.29866 17.58271 26951 ft 422 kts 322°
2026-05-06 13:03 55.32287 17.55297 27223 ft 424 kts 323°
2026-05-06 13:03 55.34707 17.52322 27516 ft 426 kts 323°
2026-05-06 13:04 55.37122 17.49350 27790 ft 428 kts 323°
2026-05-06 13:04 55.39547 17.46360 28056 ft 430 kts 323°
2026-05-06 13:04 55.42006 17.43321 28347 ft 431 kts 323°
2026-05-06 13:04 55.44436 17.40314 28616 ft 433 kts 323°
2026-05-06 13:05 55.46896 17.37265 28887 ft 435 kts 323°
2026-05-06 13:05 55.49381 17.34182 29149 ft 437 kts 322°
2026-05-06 13:05 55.51880 17.31075 29411 ft 439 kts 322°
2026-05-06 13:05 55.54376 17.27966 29658 ft 441 kts 322°
2026-05-06 13:06 55.56881 17.24843 29907 ft 443 kts 322°
2026-05-06 13:06 55.59396 17.21778 30159 ft 445 kts 326°
2026-05-06 13:06 55.62179 17.19257 30406 ft 449 kts 336°
2026-05-06 13:06 55.65144 17.17560 30667 ft 452 kts 346°
2026-05-06 13:07 55.68215 17.16708 30891 ft 455 kts 355°
2026-05-06 13:07 55.71398 17.16670 31103 ft 457 kts
2026-05-06 13:07 55.74562 17.16967 31302 ft 459 kts
2026-05-06 13:07 55.77736 17.17322 31495 ft 461 kts
2026-05-06 13:08 55.80943 17.17681 31709 ft 463 kts
2026-05-06 13:08 55.84174 17.18026 31894 ft 466 kts
2026-05-06 13:08 55.87370 17.18354 32076 ft 468 kts
2026-05-06 13:08 55.90644 17.18679 32271 ft 469 kts
2026-05-06 13:09 55.93905 17.18997 32554 ft 469 kts
2026-05-06 13:09 55.97080 17.19306 33056 ft 464 kts
2026-05-06 13:09 56.00298 17.19618 33448 ft 461 kts
2026-05-06 13:09 56.03481 17.19923 33744 ft 460 kts
2026-05-06 13:10 56.06687 17.20233 33993 ft 461 kts
2026-05-06 13:10 56.09889 17.20544 34210 ft 462 kts
2026-05-06 13:10 56.13085 17.20855 34413 ft 463 kts
2026-05-06 13:10 56.16298 17.21165 34607 ft 464 kts
2026-05-06 13:11 56.19554 17.21504 34784 ft 465 kts
2026-05-06 13:11 56.22738 17.22132 34955 ft 467 kts
2026-05-06 13:11 56.25954 17.22928 35116 ft 468 kts
2026-05-06 13:11 56.29186 17.23759 35231 ft 469 kts
2026-05-06 13:12 56.32411 17.24580 35339 ft 470 kts
2026-05-06 13:12 56.35632 17.25385 35448 ft 470 kts
2026-05-06 13:12 56.38867 17.26179 35553 ft 471 kts
2026-05-06 13:12 56.42089 17.26963 35655 ft 472 kts
2026-05-06 13:13 56.45331 17.27749 35762 ft 472 kts
2026-05-06 13:13 56.51844 17.29324 35919 ft 474 kts
2026-05-06 13:14 56.58401 17.30908 35930 ft 475 kts
2026-05-06 13:14 56.64955 17.32499 35944 ft 477 kts
2026-05-06 13:15 56.71514 17.34100 35948 ft 477 kts
2026-05-06 13:15 56.78038 17.35695 35953 ft 477 kts
2026-05-06 13:16 56.84640 17.37315 35952 ft 478 kts
2026-05-06 13:16 56.91213 17.38933 35961 ft 479 kts
2026-05-06 13:17 56.97812 17.40561 35953 ft 480 kts
2026-05-06 13:17 57.04369 17.42191 35948 ft 480 kts
2026-05-06 13:18 57.10995 17.43838 35951 ft 481 kts
2026-05-06 13:18 57.17626 17.45496 35949 ft 482 kts
2026-05-06 13:19 57.24249 17.47157 35946 ft 483 kts
2026-05-06 13:19 57.30878 17.48827 35942 ft 484 kts
2026-05-06 13:20 57.37585 17.50517 35947 ft 484 kts
2026-05-06 13:20 57.44208 17.52205 35941 ft 485 kts
2026-05-06 13:21 57.50907 17.53909 35947 ft 486 kts
2026-05-06 13:21 57.57586 17.55612 35949 ft 487 kts